Location: *
(51.5000°N, 0.1100°W)
Time: 12:27:29
(UTC+00:00)

IDEFIX/ARIANE 42P - Pass Details

Date: 08 August 2024
Orbit: 782 x 799 km, 98.5° (Epoch: 15 September)

Event Time Altitude Azimuth Distance (km) Brightness Sun altitude
Rises 01:57:53 0° 15° (NNE) 3,284 7.3 -18.2°
Reaches altitude 10° 02:00:12 10° 15° (NNE) 2,352 6.2 -18.0°
Maximum altitude 02:05:25 89° 105° (ESE) 792 2.5 -17.6°
Enters shadow 02:08:07 29° 196° (SSW) 1,399 3.3 -17.4°
